Regional Weather Roundup
Issued by NWS

Home | Current Version | Previous Version | Graphics & Text | Print | Product List | Glossary On
Versions: 1 2 3 4 5 6 7 8 9 10 11 12 13 14 15 16 17 18 19 20 21 22 23 24 25 26 27 28 29 30 31 32 33 34 35 36 37 38 39 40 41 42 43 44 45 46 47 48 49 50
881
ASUS43 KFSD 081202
RWRSD

WEATHER ROUNDUP FOR SOUTH DAKOTA
NATIONAL WEATHER SERVICE SIOUX FALLS SD
600 AM CST THU DEC 08 2016

NOTE: "FAIR" INDICATES FEW OR NO CLOUDS BELOW 12,000 FEET WITH NO
SIGNIFICANT WEATHER AND/OR OBSTRUCTIONS TO VISIBILITY.


SDZ001>005-009-010-012>017-081300-
NORTHWEST AND NORTH CENTRAL SOUTH DAKOTA

CITY           SKY/WX    TMP DP  RH WIND       PRES   REMARKS
BUFFALO          N/A     -7 -12  79 W15       30.45R WCI -28
FAITH            N/A     -4  -8  83 NW12      30.56R WCI -22
MOBRIDGE       CLOUDY     6  -3  66 NW18      30.54R WCI -13
$$

SDZ012>016-024>037-041>051-057-063-072>074-081300-
SOUTHWEST AND SOUTH CENTRAL SOUTH DAKOTA

CITY           SKY/WX    TMP DP  RH WIND       PRES   REMARKS
RAPID CTY ARPT CLEAR     -3 -10  72 N8        30.53R WCI -18
PIERRE         CLOUDY     7   1  76 NW25      30.56R WCI -15
CUSTER         CLEAR     -3 -14  59 N5        30.28S WCI -13
ELLSWORTH AFB  CLEAR     -2  -9  71 SW2       30.52R
PHILIP         CLEAR     -1  -7  75 W7        30.62R WCI -14
PINE RIDGE     CLOUDY   -17 -20  86 CALM      30.54R
SPEARFISH      FAIR      -2 -11  65 W9        30.47S WCI -18
WINNER         PTSUNNY    7  -1  70 NW20G28   30.58R WCI -13
$$

SDZ004>011-016>023-039-040-081300-
NORTHEAST SOUTH DAKOTA

CITY           SKY/WX    TMP DP  RH WIND       PRES   REMARKS
ABERDEEN       CLOUDY     8   1  73 NW20G26   30.50R WCI -11
WATERTOWN      CLOUDY     7   3  84 NW20      30.39R WCI -13
SISSETON         N/A     11   5  77 NW24      30.41R WCI  -9
$$

SDZ017-020-022-023-036>040-048>070-081300-
SOUTHEAST SOUTH DAKOTA

CITY           SKY/WX    TMP DP  RH WIND       PRES   REMARKS
SIOUX FALLS    PTCLDY     8   3  80 NW20G31   30.44R WCI -11
HURON          CLEAR      6   1  80 NW21G31   30.52R WCI -14
CHAMBERLAIN    CLEAR      8   4  82 NW18      30.57R WCI -10
MITCHELL       CLEAR      8   2  76 NW20      30.54R WCI -11
YANKTON        CLEAR      9   0  66 NW20G29   30.52R WCI -11
$$

ABBREVIATIONS USED IN REMARKS
   TC - TEMPERATURE IN CELSIUS
  WCI - WIND CHILL INDEX
   HX - HEAT INDEX
  VSB - VISIBILITY





USA.gov is the U.S. government's official web portal to all federal, state and local government web resources and services.